EW9926 Weather Reports


time (UTC)temp
F
wind
direction
speed
knots
gust
knots
rain 1hr
in
rain 24hr
in
rain mn
in
humidity
%
barometer
mb
20260504185028 69 248 0.9 5.2 0.00 0.00 0.00 37 1010.2
20260504184535 70 270 1.7 5.2 0.00 0.00 0.00 38 1010.4
20260504184031 70 276 2.6 5.2 0.00 0.00 0.00 39 1010.5
20260504183526 69 232 0.9 6.1 0.00 0.00 0.00 37 1010.4
20260504183033 69 263 1.7 7.0 0.00 0.00 0.00 36 1010.6
20260504182525 69 255 2.6 7.0 0.00 0.00 0.00 36 1010.6
20260504182024 69 279 0.9 4.3 0.00 0.00 0.00 38 1010.6
20260504181523 69 264 2.6 5.2 0.00 0.00 0.00 37 1010.7
20260504181026 69 272 2.6 8.7 0.00 0.00 0.00 36 1010.8
20260504180522 69 280 1.7 8.7 0.00 0.00 0.00 39 1010.9
20260504180023 69 269 2.6 5.2 0.00 0.00 0.00 39 1011.0
20260504175520 69 238 2.6 5.2 0.00 0.00 0.00 39 1011.1
20260504175020 68 230 1.7 7.0 0.00 0.00 0.00 35 1011.2
20260504174520 68 233 1.7 7.0 0.00 0.00 0.00 39 1011.2
20260504174023 68 251 2.6 5.2 0.00 0.00 0.00 37 1011.2
20260504173522 69 239 2.6 6.1 0.00 0.00 0.00 39 1011.3
20260504173019 69 268 2.6 6.1 0.00 0.00 0.00 36 1011.3
20260504172521 69 257 2.6 5.2 0.00 0.00 0.00 36 1011.4
20260504172017 68 249 0.9 3.5 0.00 0.00 0.00 44 1011.4
20260504171517 68 241 0.9 3.5 0.00 0.00 0.00 39 1011.4
20260504171015 68 230 1.7 4.3 0.00 0.00 0.00 40 1011.5
20260504170515 67 236 1.7 4.3 0.00 0.00 0.00 39 1011.6
20260504151054 64 266 1.7 5.2 0.00 0.00 0.00 47 1013.1
20260504150554 63 259 1.7 5.2 0.00 0.00 0.00 48 1013.1
20260504141043 60 243 0.9 6.1 0.00 0.00 0.00 52 1013.3
20260504140541 60 224 1.7 6.1 0.00 0.00 0.00 53 1013.3
20260504130528 56 231 1.7 3.5 0.00 0.00 0.00 61 1013.6
20260504110507 47 263 0.0 0.0 0.00 0.00 0.00 63 1014.3
20260504100559 46 263 0.0 0.0 0.00 0.00 0.00 58 1014.2
20260504081557 46 263 0.0 1.7 0.00 0.00 0.00 56 1014.2
20260504081054 47 263 0.0 1.7 0.00 0.00 0.00 56 1014.2
20260504080554 46 263 0.0 1.7 0.00 0.00 0.00 55 1014.2
20260504050534 48 263 0.9 1.7 0.00 0.00 0.00 54 1014.0
20260504045533 48 263 0.9 1.7 0.00 0.00 0.00 53 1014.1
20260504045032 48 263 0.9 1.7 0.00 0.00 0.00 53 1014.0
20260504044531 48 263 0.9 1.7 0.00 0.00 0.00 53 1014.0
20260504044031 48 263 0.9 1.7 0.00 0.00 0.00 53 1014.0
20260504043530 49 263 0.0 1.7 0.00 0.00 0.00 53 1014.0
20260504043039 49 263 0.9 1.7 0.00 0.00 0.00 52 1013.9
20260504042528 49 263 0.0 1.7 0.00 0.00 0.00 52 1013.8
20260504042027 49 263 0.0 1.7 0.00 0.00 0.00 51 1013.7
20260504041529 49 263 0.9 1.7 0.00 0.00 0.00 51 1013.6
20260504041026 49 263 0.9 1.7 0.00 0.00 0.00 52 1013.6
20260504040524 49 263 0.9 1.7 0.00 0.00 0.00 51 1013.5
20260504040024 49 263 0.9 1.7 0.00 0.00 0.00 51 1013.5
20260504035524 49 263 0.9 1.7 0.00 0.00 0.00 50 1013.4
20260504035023 49 263 0.9 1.7 0.00 0.00 0.00 50 1013.5
20260504034523 49 263 0.0 1.7 0.00 0.00 0.00 50 1013.4
20260504034026 49 263 0.9 1.7 0.00 0.00 0.00 50 1013.4
20260504033523 49 263 0.9 1.7 0.00 0.00 0.00 50 1013.4
20260504033023 49 263 0.9 1.7 0.00 0.00 0.00 50 1013.3
20260504032523 49 263 0.9 1.7 0.00 0.00 0.00 50 1013.3
20260504032023 49 263 0.9 1.7 0.00 0.00 0.00 49 1013.3
20260504031522 50 263 0.0 1.7 0.00 0.00 0.00 50 1013.3
20260504031024 50 263 0.0 1.7 0.00 0.00 0.00 50 1013.3
20260504030521 50 263 0.9 1.7 0.00 0.00 0.00 48 1013.2
20260504030022 50 263 0.9 2.6 0.00 0.00 0.00 49 1013.2
20260504025521 50 263 0.9 2.6 0.00 0.00 0.00 48 1013.2
20260504025024 50 263 0.9 1.7 0.00 0.00 0.00 48 1013.2
20260504024521 50 263 0.9 2.6 0.00 0.00 0.00 48 1013.2
20260504024022 50 263 0.9 2.6 0.00 0.00 0.00 48 1013.1
20260504023521 50 263 0.9 1.7 0.00 0.00 0.00 48 1013.1
20260504023021 50 263 0.9 1.7 0.00 0.00 0.00 48 1013.2
20260504022520 50 263 0.9 1.7 0.00 0.00 0.00 48 1013.2
20260504022020 50 263 0.0 1.7 0.00 0.00 0.00 48 1013.2
20260504021521 50 263 0.0 1.7 0.00 0.00 0.00 48 1013.2
20260504021020 51 263 0.0 1.7 0.00 0.00 0.00 48 1013.2
20260504020519 51 263 0.9 1.7 0.00 0.00 0.00 48 1013.2
20260504020032 51 263 0.9 1.7 0.00 0.00 0.00 48 1013.1
20260504015520 51 263 0.9 1.7 0.00 0.00 0.00 48 1013.1
20260504015020 51 263 0.0 1.7 0.00 0.00 0.00 47 1013.1
20260504014519 51 263 0.0 1.7 0.00 0.00 0.00 47 1013.1
20260504014019 51 263 0.9 1.7 0.00 0.00 0.00 47 1013.1
20260504013519 51 263 0.9 1.7 0.00 0.00 0.00 46 1013.0
20260504013022 51 263 0.9 1.7 0.00 0.00 0.00 47 1013.0
20260504012519 52 263 0.9 1.7 0.00 0.00 0.00 46 1013.0
20260504012019 52 263 0.9 1.7 0.00 0.00 0.00 46 1013.0
20260504011519 52 263 0.9 1.7 0.00 0.00 0.00 46 1012.9
20260504011021 52 263 0.9 1.7 0.00 0.00 0.00 46 1012.9
20260504010518 52 263 0.9 1.7 0.00 0.00 0.00 45 1012.7
20260504010018 52 263 0.0 1.7 0.00 0.00 0.00 45 1012.7
20260504005518 52 263 0.0 1.7 0.00 0.00 0.00 45 1012.6
20260504005018 53 263 0.9 1.7 0.00 0.00 0.00 44 1012.5
20260504004534 53 263 0.9 1.7 0.00 0.00 0.00 43 1012.5
20260504004020 53 263 0.9 1.7 0.00 0.00 0.00 43 1012.5
20260504003517 53 263 0.9 1.7 0.00 0.00 0.00 43 1012.4
20260504003018 53 263 0.9 1.7 0.00 0.00 0.00 42 1012.3
20260504002517 54 263 0.9 1.7 0.00 0.00 0.00 42 1012.3
20260504002017 54 263 0.0 1.7 0.00 0.00 0.00 42 1012.3
20260504001530 54 263 0.9 1.7 0.00 0.00 0.00 41 1012.2
20260504001017 54 263 0.9 1.7 0.00 0.00 0.00 42 1012.1
20260504000517 54 263 0.9 1.7 0.00 0.00 0.00 40 1012.0
20260504000017 55 263 0.0 1.7 0.00 0.00 0.00 40 1012.0
20260503235516 55 263 0.0 1.7 0.00 0.00 0.00 40 1011.9
20260503235015 56 263 0.9 2.6 0.00 0.00 0.00 39 1011.9
20260503234518 56 263 0.9 2.6 0.00 0.00 0.00 38 1011.9
20260503234016 56 263 0.9 2.6 0.00 0.00 0.00 37 1011.9
20260503233518 57 263 0.9 3.5 0.00 0.00 0.00 37 1011.8
20260503233015 57 263 1.7 3.5 0.00 0.00 0.00 36 1011.7
20260503232518 57 267 0.9 5.2 0.00 0.00 0.00 36 1011.7
20260503232015 57 268 0.9 5.2 0.00 0.00 0.00 36 1011.7
20260503231515 57 268 1.7 5.2 0.00 0.00 0.00 37 1011.7
20260503231018 57 286 1.7 5.2 0.00 0.00 0.00 36 1011.7
20260503230515 57 280 1.7 5.2 0.00 0.00 0.00 35 1011.6
20260503230017 57 269 2.6 6.1 0.00 0.00 0.00 34 1011.5
20260503225514 58 280 3.5 6.1 0.00 0.00 0.00 34 1011.5
20260503225014 58 274 2.6 5.2 0.00 0.00 0.00 35 1011.5
20260503224514 58 276 0.9 3.5 0.00 0.00 0.00 35 1011.5
20260503224014 58 283 0.9 5.2 0.00 0.00 0.00 36 1011.6
20260503223519 58 278 0.9 5.2 0.00 0.00 0.00 34 1011.6
20260503223013 58 298 2.6 5.2 0.00 0.00 0.00 34 1011.5
20260503222513 58 259 1.7 5.2 0.00 0.00 0.00 34 1011.5
20260503222013 58 305 1.7 3.5 0.00 0.00 0.00 34 1011.5
20260503221513 58 274 1.7 7.0 0.00 0.00 0.00 33 1011.5
20260503221013 58 274 3.5 7.0 0.00 0.00 0.00 33 1011.5
20260503220513 59 273 2.6 6.1 0.00 0.00 0.00 33 1011.3
20260503220026 59 318 2.6 6.1 0.00 0.00 0.00 32 1011.4
20260503215513 59 274 2.6 6.1 0.00 0.00 0.00 32 1011.4
20260503215012 59 276 1.7 5.2 0.00 0.00 0.00 34 1011.4
20260503214522 59 280 2.6 5.2 0.00 0.00 0.00 32 1011.4
20260503214012 59 335 2.6 7.0 0.00 0.00 0.00 33 1011.3
20260503213512 59 313 2.6 7.0 0.00 0.00 0.00 31 1011.3
20260503213025 59 303 3.5 7.0 0.00 0.00 0.00 30 1011.3
20260503212511 59 263 2.6 6.1 0.00 0.00 0.00 35 1011.3
20260503212015 59 307 1.7 6.1 0.00 0.00 0.00 34 1011.2
20260503211513 58 339 2.6 5.2 0.00 0.00 0.00 31 1011.2
20260503211010 58 291 2.6 5.2 0.00 0.00 0.00 33 1011.3
20260503210510 58 310 2.6 7.8 0.00 0.00 0.00 30 1011.3
20260503210014 58 278 2.6 7.8 0.00 0.00 0.00 31 1011.3
20260503205514 58 268 2.6 7.8 0.00 0.00 0.00 33 1011.4
20260503205012 58 313 2.6 6.1 0.00 0.00 0.00 35 1011.5
20260503204506 57 300 1.7 6.1 0.00 0.00 0.00 32 1011.5
20260503204005 57 300 2.6 7.0 0.00 0.00 0.00 33 1011.7
20260503203508 57 5 3.5 7.8 0.00 0.00 0.00 33 1011.5
20260503203008 57 10 3.5 8.7 0.00 0.00 0.00 34 1011.5
20260503202509 57 286 2.6 8.7 0.00 0.00 0.00 34 1011.6
20260503202007 57 303 3.5 7.0 0.00 0.00 0.00 37 1011.6
20260503201505 57 297 3.5 7.0 0.00 0.00 0.00 33 1011.7
20260503201004 56 306 2.6 7.8 0.00 0.00 0.00 34 1011.7
20260503200503 56 330 2.6 8.7 0.00 0.00 0.00 33 1011.9
20260503200003 57 301 2.6 9.6 0.00 0.00 0.00 34 1012.0
20260503195503 57 272 4.3 9.6 0.00 0.00 0.00 37 1011.9
20260503195003 57 334 5.2 7.8 0.00 0.00 0.00 33 1011.9
20260503194502 57 308 3.5 7.8 0.00 0.00 0.00 36 1012.0
20260503194002 57 276 4.3 9.6 0.00 0.00 0.00 35 1012.1
20260503193503 57 316 3.5 9.6 0.00 0.00 0.00 35 1012.0
20260503193003 57 309 3.5 7.0 0.00 0.00 0.00 37 1012.2
20260503192600 57 275 3.5 8.7 0.00 0.00 0.00 38 1012.2
20260503192101 56 314 3.5 8.7 0.00 0.00 0.00 35 1012.2
20260503191612 56 284 3.5 7.8 0.00 0.00 0.00 38 1012.3
20260503191058 55 306 3.5 7.0 0.00 0.00 0.00 38 1012.3
20260503190557 55 286 3.5 8.7 0.00 0.00 0.00 36 1012.3
20260503190101 56 293 5.2 8.7 0.00 0.00 0.00 37 1012.3
20260503185556 56 289 3.5 7.0 0.00 0.00 0.00 37 1012.3